Torna al catalogo

ESSA 6

TOS-D

AttivoMeteoSSO
NORAD 3035·PAYLOAD·🇺🇸 United States

Lanciato Nov 10, 1967 da Vandenberg Space Force Base

Loading…

Prossimi Passaggi (prossime 24 ore)

TLE

AggiornatoSource: Space-Track

Epoca: Sep 14, 2026, 05:04 UTC

1 03035U 67114A   26257.21118083 -.00000029  00000-0  10833-3 0  9996
2 03035 102.0220   3.3386 0048516 313.8923  74.6095 12.54250311693773

Traccia ESSA 6 in tempo reale con AllMySat

Download on the App Store